"TOA5","AWS1","CR1000","7964","CR1000.Std.14","CPU:AWS1_114.CR1","64363","TBL110"
"TIMESTAMP","RECORD","Wind_spd_WVc(1)","Wind_spd_WVc(2)","Air_Temp_Avg","Humidity_Avg","SW_upper_Wm2_Avg","Rain_Tot","Press_Avg","Issui_Tot","Depth_cm","SR50A_Raw","Quality","Ground_Temp_Avg(1)","Ground_Temp_Avg(2)","SW_lower_Wm2_Avg","Albedo_Avg","SWC_per(1)","SWC_per(2)","Period(1)","Period(2)"
"TS","RN","","","","","","","","","","","","","","","","","","",""
"","","WVc","WVc","Avg","Avg","Avg","Tot","Avg","Tot","Smp","Smp","Smp","Avg","Avg","Avg","Avg","Smp","Smp","Smp","Smp"
"2018-04-14 00:00:00",336157,0.113,295.1,2.79,57.3,0,0,870.9373,0,-4.629,3.216,179,4.924,4.562,0.07205201,0,52.49,60.33,33.91,35.75
"2018-04-14 00:10:00",336158,0.313,181.1,1.087,65.65,0,0,871.0406,0,-4.172,3.215,194,4.917,4.556,0,0,52.44,60.33,33.89,35.75
"2018-04-14 00:20:00",336159,0.254,182.3,0.85,66.65,0,0,870.9562,0,-4.069,3.216,192,4.837,4.567,0,0,52.44,60.27,33.89,35.74
"2018-04-14 00:30:00",336160,0.153,164.5,1.088,64.64,0,0,870.893,0,-3.772,3.209,171,4.849,4.566,0.07963482,0,52.44,60.33,33.89,35.75
"2018-04-14 00:40:00",336161,0.175,306.2,1.443,63.5,0,0,870.9836,0,-3.926,3.207,171,4.843,4.561,0.3412921,0,52.44,60.27,33.89,35.74
"2018-04-14 00:50:00",336162,0.416,125,1.709,62.19,0,0,870.9394,0,-4.119,3.216,184,4.752,4.555,0.5574437,0,52.44,60.27,33.89,35.74
"2018-04-14 01:00:00",336163,0.364,124,0.676,66.96,0,0,870.8804,0,-3.771,3.21,179,4.792,4.546,0.003792134,0,52.44,60.27,33.89,35.74
"2018-04-14 01:10:00",336164,0.366,132.8,1.708,64,0,0,871.0996,0,-4.376,3.215,189,4.666,4.521,0.7015472,0,52.44,60.27,33.89,35.74
"2018-04-14 01:20:00",336165,0.578,133.2,1.691,68.71,0,0,871.0932,0,-3.979,3.208,192,4.671,4.523,0.3716368,0,52.49,60.27,33.91,35.74
"2018-04-14 01:30:00",336166,0.541,151.8,2.107,71.01,0,0,871.1312,0,-4.13,3.208,195,4.73,4.535,0.4398952,0,52.44,60.27,33.89,35.74
"2018-04-14 01:40:00",336167,0.627,146.3,2.483,74.47,0,0,871.108,0,-4.081,3.204,197,4.589,4.54,0.4740198,0,52.49,60.27,33.91,35.74
"2018-04-14 01:50:00",336168,0.422,136.4,2.987,73.69,0,0,871.0616,0,-4.081,3.202,197,4.574,4.556,0.5195235,0,52.49,60.27,33.91,35.74
"2018-04-14 02:00:00",336169,0.254,127.3,3.328,73.5,0,0,871.1312,0,-3.93,3.2,193,4.547,4.562,0.3299158,0,52.44,60.27,33.89,35.74
"2018-04-14 02:10:00",336170,0.376,45.52,3.408,72.63,0,0,871.1312,0,-3.88,3.199,197,4.505,4.562,0.1023876,0,52.44,60.27,33.89,35.74
"2018-04-14 02:20:00",336171,0.303,3.739,3.411,71.83,0,0,871.1122,0,-3.779,3.198,196,4.487,4.558,0,0,52.49,60.21,33.91,35.73
"2018-04-14 02:30:00",336172,0.421,134.9,3.468,70.7,0,0,871.0005,0,-3.98,3.2,197,4.487,4.561,0,0,52.49,60.21,33.91,35.73
"2018-04-14 02:40:00",336173,0.245,82,3.396,73.04,0,0,870.8909,0,-3.93,3.2,198,4.499,4.554,0,0,52.44,60.27,33.89,35.74
"2018-04-14 02:50:00",336174,0.323,71.17,3.23,75.43,0,0,870.8973,0,-4.08,3.202,199,4.474,4.542,0,0,52.44,60.21,33.89,35.73
"2018-04-14 03:00:00",336175,0.045,111.2,2.992,77.03,0,0,870.8782,0,-4.079,3.204,197,4.405,4.508,0,0,52.44,60.21,33.89,35.73
"2018-04-14 03:10:00",336176,0.366,28.92,2.954,79.28,0,0,870.8762,0,-4.08,3.202,196,4.401,4.505,0,0,52.44,60.21,33.89,35.73
"2018-04-14 03:20:00",336177,0.019,33.53,2.858,79.74,0,0,870.8382,0,-3.929,3.204,196,4.39,4.486,0,0,52.49,60.21,33.91,35.73
"2018-04-14 03:30:00",336178,0.068,65.47,2.604,81.2,0,0,870.6548,0,-4.029,3.206,189,4.314,4.414,0,0,52.49,60.21,33.91,35.73
"2018-04-14 03:40:00",336179,0.055,186.7,2.443,82.1,0,0,870.619,0,-4.179,3.206,196,4.314,4.401,0.01896067,0,52.49,60.21,33.91,35.73
"2018-04-14 03:50:00",336180,0.061,186.7,2.514,80.5,0,0,870.6317,0,-4.329,3.21,179,4.313,4.401,0.1441011,0,52.44,60.21,33.89,35.73
"2018-04-14 04:00:00",336181,0.202,184.8,1.809,83.4,0,0,870.6464,0,-3.998,3.212,176,4.295,4.433,0,0,52.49,60.21,33.91,35.73
"2018-04-14 04:10:00",336182,0.103,190.7,1.705,84.5,0,0,870.6253,0,-3.927,3.207,179,4.224,4.481,0.1403089,0,52.49,60.15,33.91,35.71
"2018-04-14 04:20:00",336183,0.057,182.4,1.856,81.9,0,0,870.5748,0,-4.123,3.213,198,4.228,4.486,0.2123595,0,52.49,60.21,33.91,35.73
"2018-04-14 04:30:00",336184,0.261,161.5,1.799,83,0.141587,0,870.3535,0,-4.201,3.211,197,4.228,4.484,0.4664325,1.028,52.44,60.21,33.89,35.73
"2018-04-14 04:40:00",336185,0.096,148.6,2.437,76.64,0.1061903,0,870.1658,0,-4.08,3.201,196,4.212,4.471,0.819101,1.302,52.49,60.21,33.91,35.73
"2018-04-14 04:50:00",336186,0.167,198.5,3.673,64.16,0.5073535,0,870.2333,0,-4.484,3.202,180,4.183,4.456,1.607865,3.687,52.44,60.21,33.89,35.73
"2018-04-14 05:00:00",336187,0.159,269.4,3.707,63.96,0.003932973,0,870.1258,0,-3.88,3.2,191,4.142,4.414,0.595365,0.096,52.44,60.15,33.89,35.71
"2018-04-14 05:10:00",336188,0.221,347.1,3.686,62.43,0,0,870.2734,0,-4.106,3.199,186,4.141,4.33,0.4550561,0,52.44,60.15,33.89,35.71
"2018-04-14 05:20:00",336189,0.356,348.1,3.537,65.53,0.8337902,0,870.1978,0,-3.754,3.197,173,4.141,4.32,0.2502808,0.154,52.49,60.15,33.91,35.71
"2018-04-14 05:30:00",336190,0.339,51.45,3.686,65.12,4.279074,0,870.17,0,-3.703,3.194,173,4.141,4.314,0.8721908,0.189,52.44,60.15,33.89,35.71
"2018-04-14 05:40:00",336191,0.302,14.61,4.02,63.75,12.00343,0,869.9902,0,-3.93,3.196,180,4.141,4.316,2.301825,0.193,52.44,60.15,33.89,35.71
"2018-04-14 05:50:00",336192,0.54,7.175,3.899,65.38,15.43298,0,869.9773,0,-3.955,3.197,173,4.149,4.314,2.313202,0.151,52.44,60.15,33.89,35.71
"2018-04-14 06:00:00",336193,0.383,12.18,3.843,67.52,51.82478,0,870.1035,0,-3.653,3.193,185,4.127,4.314,8.410954,0.162,52.44,60.15,33.89,35.71
"2018-04-14 06:10:00",336194,0.631,8.29,4.182,67.95,78.46673,0,870.0839,0,-3.778,3.193,178,4.064,4.314,13.46966,0.172,52.44,60.15,33.89,35.71
"2018-04-14 06:20:00",336195,0.703,29.57,4.532,67.74,87.9334,0,870.0549,0,-3.751,3.19,177,4.031,4.314,14.27738,0.162,52.44,60.09,33.89,35.7
"2018-04-14 06:30:00",336196,0.384,328,4.669,67.9,90.34029,0,870.1509,0,-3.625,3.19,192,4.026,4.314,14.14085,0.156,52.44,60.15,33.89,35.71
"2018-04-14 06:40:00",336197,0.212,3.252,4.774,66.89,117.3298,0,870.2623,0,-3.618,3.188,196,4.02,4.308,18.99438,0.162,52.44,60.15,33.89,35.71
"2018-04-14 06:50:00",336198,0.177,122.1,5.203,64.88,135.7618,0,870.2452,0,-3.573,3.185,196,3.993,4.277,21.61321,0.16,52.44,60.15,33.89,35.71
"2018-04-14 07:00:00",336199,0.648,104,5.285,64.56,141.8513,0,870.0313,0,-3.885,3.188,181,3.949,4.222,22.9261,0.161,52.44,60.15,33.89,35.71
"2018-04-14 07:10:00",336200,0.929,135.4,5.321,63.58,138.5652,0,869.9278,0,-3.928,3.188,195,3.919,4.204,22.73096,0.164,52.38,60.15,33.88,35.71
"2018-04-14 07:20:00",336201,0.858,124.2,5.507,64.38,141.0376,0,869.9257,0,-4.024,3.188,186,3.935,4.229,22.6961,0.16,52.38,60.15,33.88,35.71
"2018-04-14 07:30:00",336202,0.704,130.7,5.531,64.34,104.2319,0,869.696,0,-4.302,3.191,194,3.941,4.203,15.86094,0.151,52.38,60.15,33.88,35.71
"2018-04-14 07:40:00",336203,0.537,63.49,5.755,63.79,177.6941,0,869.7278,0,-4.45,3.19,191,3.943,4.193,29.16675,0.163,52.44,60.15,33.89,35.71
"2018-04-14 07:50:00",336204,0.802,131.8,6.048,62.1,214.9579,0,869.5497,0,-4.345,3.186,190,3.964,4.191,34.12893,0.158,52.44,60.09,33.89,35.7
"2018-04-14 08:00:00",336205,0.743,123,6.188,60.27,182.5298,0,869.4557,0,-4.146,3.186,180,3.963,4.203,29.01129,0.159,52.44,60.09,33.89,35.7
"2018-04-14 08:10:00",336206,0.94,129.5,6.172,58.05,264.9014,0,869.3701,0,-3.842,3.182,195,3.948,4.19,41.79399,0.158,52.44,60.09,33.89,35.7
"2018-04-14 08:20:00",336207,0.906,131.4,6.398,57.37,220.8545,0,869.1865,0,-4.801,3.192,189,3.979,4.212,34.46618,0.156,52.44,60.09,33.89,35.7
"2018-04-14 08:30:00",336208,1.236,145.2,6.25,57.1,258.9027,0,868.972,0,-4.538,3.188,190,3.995,4.179,40.65126,0.157,52.38,60.09,33.88,35.7
"2018-04-14 08:40:00",336209,1.246,141.4,6.89,55.06,367.2573,0,868.8705,0,-4.233,3.181,195,3.955,4.155,68.55195,0.185,52.38,60.03,33.88,35.69
"2018-04-14 08:50:00",336210,1.375,139.2,7.689,53.95,366.7014,0,868.9506,0,-4.34,3.179,186,3.896,4.129,79.0317,0.218,52.38,60.09,33.88,35.7
"2018-04-14 09:00:00",336211,0.987,140,7.556,54.77,262.9306,0,868.9653,0,-4.895,3.186,179,3.93,4.137,41.23563,0.157,52.44,60.03,33.89,35.69
"2018-04-14 09:10:00",336212,1.137,125.3,7.236,57.79,215.6023,0,868.9063,0,-4.489,3.183,172,3.947,4.076,33.45449,0.155,52.38,60.09,33.88,35.7
"2018-04-14 09:20:00",336213,0.647,113.5,7.576,58.28,253.697,0,868.7209,0,-4.229,3.177,184,3.983,4.074,39.34698,0.155,52.38,60.03,33.88,35.69
"2018-04-14 09:30:00",336214,0.794,130.8,7.772,58.06,300.6828,0,868.6767,0,-3.973,3.174,189,3.959,4.079,46.24005,0.153,52.38,60.09,33.88,35.7
"2018-04-14 09:40:00",336215,0.839,138.4,8.03,57.52,360.6746,0,868.5714,0,-4.122,3.174,180,3.986,4.072,55.14924,0.153,52.38,60.09,33.88,35.7
"2018-04-14 09:50:00",336216,0.925,149.2,8.21,56.71,297.8175,0,868.3671,0,-4.327,3.177,185,4.005,4.079,46.0657,0.155,52.38,60.09,33.88,35.7
"2018-04-14 10:00:00",336217,0.579,103.1,8.34,56.37,320.0197,0,868.0364,0,-4.674,3.177,190,4.043,4.088,51.61739,0.161,52.38,60.09,33.88,35.7
"2018-04-14 10:10:00",336218,0.835,62.7,8.75,55.14,356.2137,0,867.9164,0,-4.57,3.175,190,4.093,4.071,56.63474,0.159,52.38,60.09,33.88,35.7
"2018-04-14 10:20:00",336219,1.28,84.3,8.82,55.72,342.6188,0,867.9122,0,-4.239,3.171,190,4.073,4.069,53.69405,0.157,52.38,60.09,33.88,35.7
"2018-04-14 10:30:00",336220,1.454,130.8,8.92,56.3,449.0235,0,867.8869,0,-3.752,3.165,194,4.111,4.071,69.99289,0.157,52.38,60.09,33.88,35.7
"2018-04-14 10:40:00",336221,1.118,146.5,9.25,55.5,310.2962,0,867.5857,0,-3.854,3.166,183,4.177,4.056,45.77012,0.147,52.38,60.09,33.88,35.7
"2018-04-14 10:50:00",336222,1.11,116.8,8.88,57.02,134.3524,0,867.5793,0,-4.47,3.175,193,4.179,4.008,18.64448,0.138,52.32,60.03,33.87,35.69
"2018-04-14 11:00:00",336223,0.862,130.1,8.47,59.02,126.6715,0,867.5014,0,-4.269,3.174,187,4.177,4.003,17.61736,0.139,52.38,60.03,33.88,35.69
"2018-04-14 11:10:00",336224,0.648,74.58,8.54,60.27,147.6756,0,867.6636,0,-4.723,3.177,186,4.228,4.004,21.20993,0.142,52.38,60.03,33.88,35.69
"2018-04-14 11:20:00",336225,0.794,103.5,8.79,60.77,228.0699,0,867.6088,0,-4.595,3.175,190,4.263,4.006,33.90117,0.149,52.38,60.03,33.88,35.69
"2018-04-14 11:30:00",336226,0.722,91,8.97,60.76,316.6196,0,867.3288,0,-4.051,3.166,192,4.341,4.006,48.88127,0.154,52.32,60.03,33.87,35.69
"2018-04-14 11:40:00",336227,1.102,158.7,9.34,58.72,374.1905,0,867.0676,0,-4.362,3.171,194,4.313,4.006,58.51809,0.156,52.38,60.03,33.88,35.69
"2018-04-14 11:50:00",336228,1.019,123.2,9.63,57.05,504.0903,0,866.7327,0,-4.248,3.166,184,4.383,4.006,79.44394,0.156,52.32,60.03,33.87,35.69
"2018-04-14 12:00:00",336229,0.919,126.9,9.98,56.39,520.9473,0,866.7369,0,-4.088,3.162,187,4.394,3.995,82.44146,0.156,52.38,60.03,33.88,35.69
"2018-04-14 12:10:00",336230,0.919,121.1,9.81,57.45,258.8485,0,866.6959,0,-3.644,3.162,192,4.487,3.992,37.8272,0.146,52.32,60.03,33.87,35.69
"2018-04-14 12:20:00",336231,1.329,126.4,9.24,60.36,245.4059,0,866.498,0,-4.107,3.169,189,4.513,4.004,36.80007,0.15,52.32,60.03,33.87,35.69
"2018-04-14 12:30:00",336232,1.616,134.4,9.12,60.44,318.4216,0,866.1354,0,-3.945,3.165,185,4.465,4,49.84289,0.156,52.32,60.03,33.87,35.69
"2018-04-14 12:40:00",336233,2.032,126.4,9.5,58.94,291.4251,0,866.1741,0,-4.152,3.168,181,4.521,3.998,44.81368,0.153,52.32,60.03,33.87,35.69
"2018-04-14 12:50:00",336234,2.187,115,9.22,61.65,179.1075,0,866.1669,0,-4.249,3.169,185,4.601,3.971,26.79474,0.15,52.32,60.03,33.87,35.69
"2018-04-14 13:00:00",336235,1.507,123.6,9.19,63.45,199.0369,0,866.1202,0,-3.922,3.166,209,4.582,3.934,30.18243,0.152,52.32,60.03,33.87,35.69
"2018-04-14 13:10:00",336236,1.322,139.5,9.38,63.7,288.765,0,865.8592,0,-3.893,3.164,200,4.639,3.935,45.30261,0.157,52.32,60.03,33.87,35.69
"2018-04-14 13:20:00",336237,1.253,144.2,9.62,62.19,281.1293,0,865.8013,0,-3.84,3.162,195,4.668,3.987,43.36691,0.154,52.32,60.03,33.87,35.69
"2018-04-14 13:30:00",336238,1.023,138.3,9.59,63.13,158.708,0,865.8585,0,-4.155,3.168,194,4.746,3.989,23.14262,0.144,52.27,60.03,33.85,35.69
"2018-04-14 13:40:00",336239,1.725,146.1,9.08,64.6,125.1283,0,865.7174,0,-4.414,3.172,194,4.784,3.969,17.55692,0.14,52.27,59.97,33.85,35.67
"2018-04-14 13:50:00",336240,1.878,149,8.91,65.33,77.59164,0,865.5763,0,-4.266,3.172,194,4.752,3.959,10.82672,0.139,52.27,59.97,33.85,35.67
"2018-04-14 14:00:00",336241,1.163,114.8,8.79,67.08,71.97134,0,865.3888,0,-4.164,3.171,171,4.788,3.967,10.37955,0.144,52.27,59.97,33.85,35.67
"2018-04-14 14:10:00",336242,1.61,130.3,8.76,67.04,94.98316,0,865.214,0,-4.265,3.172,186,4.863,3.963,13.99478,0.147,52.27,59.97,33.85,35.67
"2018-04-14 14:20:00",336243,1.526,135.3,8.79,66.62,127.463,0,865.1572,0,-4.115,3.171,177,4.856,3.963,18.90981,0.148,52.27,59.97,33.85,35.67
"2018-04-14 14:30:00",336244,1.083,128.9,8.8,67.34,102.49,0,865.0982,0,-4.14,3.171,181,4.878,3.981,14.90805,0.145,52.27,59.97,33.85,35.67
"2018-04-14 14:40:00",336245,1.501,130.8,8.76,66.89,121.4615,0,864.7338,0,-4.062,3.17,184,4.899,3.989,17.97758,0.148,52.27,59.97,33.85,35.67
"2018-04-14 14:50:00",336246,1.535,130.5,8.78,66.28,121.2139,0,864.4789,0,-4.241,3.172,181,4.958,4.002,17.81084,0.147,52.21,59.97,33.84,35.67
"2018-04-14 15:00:00",336247,0.923,128.2,8.7,66.31,101.5546,0,864.1188,0,-4.062,3.17,185,4.954,4.015,14.5291,0.143,52.21,59.97,33.84,35.67
"2018-04-14 15:10:00",336248,0.789,129.3,8.83,65.56,130.5326,0,863.8176,0,-4.088,3.17,178,5.001,4.006,19.11823,0.146,52.27,59.97,33.85,35.67
"2018-04-14 15:20:00",336249,0.689,351.4,8.99,65.15,89.17027,0,863.7017,0,-4.364,3.172,171,5.035,4.006,12.53959,0.133,52.21,59.97,33.84,35.67
"2018-04-14 15:30:00",336250,0.437,46.14,8.75,66.92,25.6451,0,863.746,0,-4.268,3.173,170,5.044,4.006,2.690574,0.104,52.21,59.97,33.84,35.67
"2018-04-14 15:40:00",336251,0.612,161.3,8.63,66.73,32.38554,0,863.4847,0,-4.37,3.174,177,5.044,4.01,4.028282,0.124,52.21,59.91,33.84,35.66
"2018-04-14 15:50:00",336252,0.637,51.1,8.51,68.24,21.64407,0,863.3795,0,-3.458,3.166,188,5.044,4.023,2.705732,0.125,52.27,59.91,33.85,35.66
"2018-04-14 16:00:00",336253,0.877,63.48,8.38,68.92,13.26078,0,863.2952,0,-3.255,3.164,180,5.051,4.042,2.114564,0.162,52.21,59.91,33.84,35.66
"2018-04-14 16:10:00",336254,0.877,60.6,8.4,69,9.031791,0,863.3395,0,-3.637,3.168,190,5.112,4.083,1.258128,0.139,52.21,59.91,33.84,35.66
"2018-04-14 16:20:00",336255,1.084,164.5,8.47,68.94,11.34673,0,863.1161,0,-4.015,3.171,180,5.098,4.092,1.584028,0.139,52.21,59.91,33.84,35.66
"2018-04-14 16:30:00",336256,0.84,115.3,8.46,68.95,6.905508,0,863.0087,0,-4.169,3.173,181,5.066,4.092,1.023176,0.149,52.16,59.91,33.83,35.66
"2018-04-14 16:40:00",336257,0.856,105,8.46,68.4,12.34502,0,862.8445,0,-4.193,3.173,176,5.057,4.091,1.777295,0.144,52.16,59.91,33.83,35.66
"2018-04-14 16:50:00",336258,0.628,28.91,8.48,67.25,8.469761,0,862.796,0,-3.966,3.171,174,5.081,4.084,1.32255,0.162,52.21,59.91,33.84,35.66
"2018-04-14 17:00:00",336259,0.866,112.9,8.33,67.25,11.54717,0,862.6339,0,-3.612,3.168,176,5.089,4.063,2.008457,0.177,52.16,59.91,33.83,35.66
"2018-04-14 17:10:00",336260,0.712,34.16,8.22,67,8.202501,0,862.459,0,-4.124,3.175,199,5.085,4.052,1.705293,0.21,52.16,59.91,33.83,35.66
"2018-04-14 17:20:00",336261,0.883,69.32,7.86,69.63,3.808445,0,862.5032,0,-4.33,3.178,204,5.088,4.051,1.663608,0.587,52.21,59.85,33.84,35.64
"2018-04-14 17:30:00",336262,0.73,105.4,7.716,71.03,9.350144,0,862.2948,0,-3.827,3.175,185,5.066,4.055,2.682995,0.293,52.21,59.91,33.84,35.66
"2018-04-14 17:40:00",336263,0.964,17.61,7.293,75.85,4.173961,0,862.2,0,-4.188,3.182,192,5.08,4.061,1.549922,0.689,52.21,59.91,33.84,35.66
"2018-04-14 17:50:00",336264,0.832,54.1,6.844,80.3,3.376113,0,862.0483,0,-4.038,3.182,183,5.088,4.079,1.417288,0.463,52.16,59.91,33.83,35.66
"2018-04-14 18:00:00",336265,0.69,81.2,6.52,85.4,0.9786457,0.5,862.0526,0,-4.017,3.183,183,5.109,4.101,1.042133,0.805,52.21,59.91,33.84,35.66
"2018-04-14 18:10:00",336266,1.099,153.3,6.477,86.8,0.286915,0.5,861.8356,0,-3.589,3.178,198,5.124,4.116,1.121726,1.203,52.21,59.85,33.84,35.64
"2018-04-14 18:20:00",336267,0.716,321.2,6.362,92.5,0.1061211,0,861.6818,0.5,-3.745,3.181,208,5.139,4.144,0.7086717,0.418,52.16,59.85,33.83,35.64
"2018-04-14 18:30:00",336268,0.707,18.96,6.164,99.2,0,0.5,861.8735,0,-3.852,3.183,192,5.146,4.148,0.435823,0,52.16,59.85,33.83,35.64
"2018-04-14 18:40:00",336269,0.552,37.3,6.024,100,0,0,862.0188,0.5,-4.201,3.187,179,5.17,4.175,0.2690984,0,52.16,59.85,33.83,35.64
"2018-04-14 18:50:00",336270,0.642,56.83,6.04,100,0,0.5,861.9704,0,-3.884,3.184,187,5.194,4.206,0.4017912,0,52.16,59.85,33.83,35.64
"2018-04-14 19:00:00",336271,1.121,146.8,6.026,87.7,0,0,861.8525,0,-4.447,3.19,188,5.228,4.24,1.031071,0,52.16,59.85,33.83,35.64
"2018-04-14 19:10:00",336272,1.121,126,5.563,83.7,0,0.5,861.8146,0.5,-4.226,3.192,179,5.219,4.276,0.8794625,0,52.16,59.85,33.83,35.64
"2018-04-14 19:20:00",336273,0.834,128.4,5.08,84.9,0,0,861.587,0.5,-3.849,3.19,188,5.18,4.272,0.8415625,0,52.16,59.85,33.83,35.64
"2018-04-14 19:30:00",336274,0.686,127.3,4.667,88.1,0,0.5,861.6017,0,-4.028,3.194,187,5.178,4.296,0.7505848,0,52.16,59.85,33.83,35.64
"2018-04-14 19:40:00",336275,0.826,126.4,4.424,89.7,0,0,861.5754,0.5,-3.951,3.193,170,5.18,4.288,0.8301931,0,52.21,59.85,33.84,35.64
"2018-04-14 19:50:00",336276,1.002,107.1,4.367,88.4,0,0,861.4435,0,-3.952,3.194,170,5.186,4.306,0.9514999,0,52.21,59.85,33.84,35.64
"2018-04-14 20:00:00",336277,1.076,65.22,4.193,89.5,0,0.5,861.5838,0,-4.003,3.196,192,5.141,4.311,0.8908466,0,52.16,59.79,33.83,35.63
"2018-04-14 20:10:00",336278,0.803,40.11,3.924,90.7,0,0.5,861.4354,0.5,-3.878,3.197,187,5.134,4.311,0.7619581,0,52.21,59.79,33.84,35.63
"2018-04-14 20:20:00",336279,0.655,72.67,3.757,95.8,0,0.5,861.3546,0,-3.978,3.198,192,5.136,4.311,0.6179063,0,52.21,59.79,33.84,35.63
"2018-04-14 20:30:00",336280,0.803,87.1,3.667,100,0,0,861.2919,0.5,-3.978,3.198,192,5.137,4.311,0.4586912,0,52.27,59.85,33.85,35.64
"2018-04-14 20:40:00",336281,0.708,43.59,3.585,100,0,1,861.2422,0.5,-4.003,3.199,189,5.128,4.311,0.4549004,0,52.32,59.79,33.87,35.63
"2018-04-14 20:50:00",336282,0.528,33.39,3.545,100,0,0.5,861.0325,0.5,-4.255,3.202,190,5.071,4.311,0.3866653,0,52.44,59.85,33.89,35.64
"2018-04-14 21:00:00",336283,0.722,96.2,3.437,100,0,0,860.7937,0.5,-3.526,3.196,192,5.023,4.311,0.1743785,0,52.6,59.85,33.94,35.64
"2018-04-14 21:10:00",336284,0.771,53.61,3.388,100,0.03145302,0.5,860.5243,0,-3.299,3.192,186,5.046,4.311,0.2160777,0.064,52.94,59.85,34.02,35.64
"2018-04-14 21:20:00",336285,0.675,71.66,3.849,100,0.1808548,0.5,860.2757,0.5,-3.5,3.192,190,5.047,4.31,0.5951613,0.739,53.28,59.85,34.1,35.64
"2018-04-14 21:30:00",336286,0.705,67.42,4.196,100,0.1533334,0,860.0629,0.5,-3.473,3.189,174,5.047,4.313,0.6747689,0.803,53.45,59.91,34.14,35.66
"2018-04-14 21:40:00",336287,0.816,106,4.514,100,0,0.5,859.9175,0,-3.624,3.189,189,5.054,4.333,0.6520239,0,53.61,59.97,34.18,35.67
"2018-04-14 21:50:00",336288,1.03,132,4.765,100,0,1,859.9427,1,-3.597,3.187,182,5.084,4.375,0.4738545,0,53.78,60.03,34.22,35.69
"2018-04-14 22:00:00",336289,1.152,140.4,5.14,100,0.003931627,0.5,859.7343,0.5,-3.393,3.183,186,5.077,4.354,0.6520239,0.064,54.01,60.09,34.27,35.7
"2018-04-14 22:10:00",336290,1.159,151.1,5.369,99.8,0,0.5,859.4393,0.5,-3.113,3.178,191,5.044,4.327,0.5307171,0,54.18,60.15,34.32,35.71
"2018-04-14 22:20:00",336291,1.787,154.2,6.03,94.4,0.02358976,0,858.7419,0,-3.31,3.177,192,4.987,4.316,0.670978,0.209,54.35,60.27,34.36,35.74
"2018-04-14 22:30:00",336292,1.838,175.1,6.474,91.9,0.003931627,0.5,858.3858,0.5,-3.483,3.176,178,4.932,4.364,0.5610438,0.064,54.41,60.38,34.37,35.77
"2018-04-14 22:40:00",336293,0.898,148.5,6.513,96.5,0,0.5,858.2825,0.5,-2.954,3.172,170,4.92,4.391,0.2350319,0,54.41,60.5,34.37,35.79
"2018-04-14 22:50:00",336294,0.893,356,6.608,99.1,0,0,858.2172,0,-3.356,3.175,192,4.929,4.397,0.4245737,0,54.41,60.68,34.37,35.83
"2018-04-14 23:00:00",336295,1.045,40.87,6.552,99.9,0.01179488,0.5,857.8444,0.5,-3.331,3.175,174,4.95,4.395,0.2047052,0.096,54.52,60.74,34.4,35.85
"2018-04-14 23:10:00",336296,0.836,345.6,6.596,100,0.05111115,0.5,857.7496,0.5,-3.179,3.173,191,4.961,4.374,0.1743785,0.177,54.52,60.92,34.4,35.89
"2018-04-14 23:20:00",336297,0.892,49.14,6.784,100,0.01179488,0.5,857.5262,0.5,-3.328,3.173,187,4.961,4.355,0.3108486,0.048,54.52,61.1,34.4,35.93
"2018-04-14 23:30:00",336298,0.907,1.695,6.925,100,0.03931627,0.5,857.4747,0,-3.128,3.172,192,4.961,4.355,0.1705876,0.08,54.58,61.4,34.41,36
"2018-04-14 23:40:00",336299,0.803,19.09,7.058,100,0.1022223,0.5,857.4454,1,-3.351,3.172,190,4.961,4.355,0.2047052,0.257,54.69,61.64,34.44,36.05
"2018-04-14 23:50:00",336300,0.903,54.49,7.21,100,0.02358976,1,857.3639,0.5,-3.705,3.175,190,4.961,4.342,0.07960757,0.048,54.69,62,34.44,36.13
